Regional Weather Roundup
Issued by NWS Charleston, WV

Home | Current Version | Previous Version | Graphics & Text | Print | Product List | Glossary On
Versions: 1 2 3 4 5 6 7 8 9 10 11 12 13 14 15 16 17 18 19 20 21 22 23 24 25 26 27 28 29 30 31 32 33 34 35 36 37 38 39 40 41 42 43 44 45 46 47 48 49 50
000
ASUS41 KRLX 171510
RWRRLX
West Virginia Regional Weather Roundup
National Weather Service Charleston WV
1100 AM EDT FRI APR 17 2015

Note: "fair" indicates few or no clouds below 12,000 feet with no
significant weather and/or obstructions to visibility.

WVZ003-171600-
Northern Panhandle of West Virginia

CITY           SKY/WX    TMP DP  RH WIND       PRES   REMARKS
WHEELING       CLOUDY    61  53  75 W8        30.09R
$$

WVZ009-171600-
Northwest West Virginia

CITY           SKY/WX    TMP DP  RH WIND       PRES   REMARKS
PARKERSBURG    CLOUDY    60  57  89 SW6       30.12S
$$

WVZ006-171600-
Western West Virginia

CITY           SKY/WX    TMP DP  RH WIND       PRES   REMARKS
HUNTINGTON     CLOUDY    67  58  72 SW9       30.11S
$$

WVZ015-171600-
West Central West Virginia

CITY           SKY/WX    TMP DP  RH WIND       PRES   REMARKS
CHARLESTON     PTSUNNY   66  56  70 SW8       30.12S
$$

WVZ022-031-171600-
North Central West Virginia

CITY           SKY/WX    TMP DP  RH WIND       PRES   REMARKS
CLARKSBURG     CLOUDY    60  56  86 SW6       30.11R
MORGANTOWN     CLOUDY    58  53  84 VRB6      30.11S
$$

WVZ025-035-042-045-171600-
Southern West Virginia

CITY           SKY/WX    TMP DP  RH WIND       PRES   REMARKS
BECKLEY        CLOUDY    62  52  69 CALM      30.16F
LOGAN          CLOUDY    66  55  68 CALM      30.11S
BLUEFIELD      CLOUDY    64  53  67 W10       30.19S
LEWISBURG      MOSUNNY   62  55  78 S3        30.15F
$$

WVZ047-171600-
Northern Mountains of West Virginia

CITY           SKY/WX    TMP DP  RH WIND       PRES   REMARKS
ELKINS         CLOUDY    62  55  77 CALM      30.13S
$$

WVZ052-171600-
Eastern Panhandle of West Virginia

CITY           SKY/WX    TMP DP  RH WIND       PRES   REMARKS
MARTINSBURG    PTSUNNY   66  55  67 SW6       30.08S
PETERSBURG     PTSUNNY   70  53  54 S3        30.07F
$$



USA.gov is the U.S. government's official web portal to all federal, state and local government web resources and services.